www.pogodaiklimat.ru

Погода и климат >> Архив погоды >> Южная Африка >> Виулсдриф


ПОГОДА в Виулсдрифе

  • Прогноз погоды в Виулсдрифе
  • Монитор погоды в Виулсдрифе

АРХИВ ПОГОДЫ в Виулсдрифе

Время (UTC), дата Ветер
(напр.,м/с)
 
Видим.   Явления Облачность Т
(С)
Тd
(С)
f
(%)
Тe
(С)
Тes
(С)
Комфортность P
(гПа)
Po
(гПа)
Тmin
(С)
Tmax
(С)
R
(мм)
R24
(мм)
S
(см)
00 15.07 СЗ 1 н/о н/о +13.3 -1.7 35 +14 +14 999.2 +13.3 +27.7
03 15.07 СЗ 1 н/о н/о +11.3 -3.1 36 +12 +12 999.2 +11.3 +27.7
06 15.07 С 2 н/о н/о +9.7 +1.1 55 +9 +9 1000.3 +9.5
09 15.07 ЮВ 1 н/о н/о +18.7 -8.3 15 +20 +20 1001.1 +9.5 +18.7
12 15.07 СВ 1 н/о н/о +25.1 -8.4 10 +22 +22 комфорт 997.5 +9.5 +25.1
15 15.07 СЗ 1 н/о н/о +26.7 -7.1 10 +24 +24 комфорт 995.3 +24.9 +27.3
18 15.07 ЮВ 1 н/о н/о +19.9 -8.2 14 +21 +21 комфорт 996.1 +19.9 +27.3
21 15.07 Ю 2 н/о н/о +16.8 -6.8 19 +17 +17 996.8 +16.8 +27.3
00 16.07 Ю 2 н/о н/о +14.3 -8.3 20 +15 +15 997.5 +12.9 +27.3
03 16.07 СЗ 1 н/о н/о +10.8 -0.9 44 +11 +11 997.4 +10.8 +27.3
06 16.07 Ю 1 н/о н/о +10.9 -7.8 26 +11 +11 999.5 +9.6
09 16.07 штиль 0 н/о н/о +19.3 -7.8 15 +19 +19 1000.2 +9.3 +19.3
12 16.07 СВ 2 н/о н/о +24.8 -5.2 13 +23 +23 комфорт 997.3 +9.3 +24.9
15 16.07 СЗ 2 н/о н/о +26.6 -6.0 11 +24 +24 комфорт 996.1 +24.8 +27.5
18 16.07 штиль 0 н/о н/о +20.1 -6.3 16 +19 +19 997.7 +19.9 +27.5
21 16.07 штиль 0 н/о н/о +15.9 -6.3 21 +16 +16 998.5 +15.4 +27.5
00 17.07 СЗ 1 н/о н/о +12.6 -0.2 41 +13 +13 999.5 +12.6 +27.5
03 17.07 СЗ 2 н/о н/о +10.0 -0.7 47 +9 +9 1000.2 +9.6 +27.5
06 17.07 СЗ 1 н/о н/о +8.7 -1.9 47 +9 +9 1002.3 +7.8
09 17.07 штиль 0 н/о н/о +18.5 -8.5 15 +18 +18 1002.9 +7.8 +18.8
12 17.07 СЗ 2 н/о н/о +24.8 -7.4 11 +22 +22 комфорт 1000.3 +7.8 +24.8
15 17.07 С 2 н/о н/о +27.1 -9.7 8 +24 +24 комфорт 999.1 +24.6 +27.3
18 17.07 Ю 4 н/о н/о +22.8 -4.1 16 +21 +21 комфорт 999.8 +22.5 +27.3
21 17.07 Ю 2 н/о н/о +17.0 -3.0 25 +18 +18 1001.5 +17.0 +27.3
00 18.07 СЗ 2 н/о н/о +14.1 -5.0 26 +14 +14 1001.5 +13.2 +27.3
03 18.07 штиль 0 н/о н/о +11.1 -5.7 30 +11 +11 1001.7 +10.9 +27.3
06 18.07 штиль 0 н/о н/о +10.1 -5.8 32 +10 +10 1002.5 +9.2
09 18.07 ЮВ 1 н/о н/о +19.2 -5.5 18 +20 +20 1003.1 +9.2 +19.6
12 18.07 СВ 1 н/о н/о +25.4 -6.9 11 +23 +23 комфорт 1000.2 +9.2 +25.5
15 18.07 СЗ 2 н/о н/о +27.0 -5.7 11 +24 +24 комфорт 998.0 +25.0 +27.8
18 18.07 Ю 3 н/о н/о +22.5 +2.2 26 +22 +22 комфорт 999.6 +22.5 +27.8
21 18.07 Ю 2 н/о н/о +18.3 +4.9 41 +19 +19 1000.6 +18.3 +27.8
00 19.07 СЗ 3 н/о н/о +15.3 +2.2 41 +15 +15 1000.9 +14.9 +27.8
03 19.07 СЗ 1 н/о н/о +12.2 +4.7 60 +12 +12 1001.6 +12.1 +27.8
06 19.07 СЗ 2 н/о н/о +12.9 +5.1 59 +12 +12 1003.1 +12.0
09 19.07 С 1 н/о н/о +20.6 +10.5 52 +23 +23 комфорт 1004.1 +12.0 +21.0
12 19.07 СЗ 2 н/о н/о +23.9 +9.6 40 +25 +25 комфорт 1001.5 +12.0 +24.8
15 19.07 Ю 4 н/о н/о +23.5 +6.9 34 +24 +24 комфорт 1001.0 +23.5 +25.5
18 19.07 Ю 4 н/о н/о +18.3 +9.4 56 +19 +19 1002.2 +18.3 +25.5
21 19.07 Ю 3 н/о н/о +16.2 +8.2 59 +16 +16 1003.6 +16.2 +25.5
00 20.07 штиль 0 н/о н/о +13.4 +7.8 69 +13 +13 1003.8 +13.3 +25.5
03 20.07 Ю 4 н/о н/о +12.9 +5.6 61 +11 +11 1003.1 +12.6 +25.5
06 20.07 Ю 4 н/о н/о +12.5 +4.2 57 +11 +11 1004.7 +12.1
09 20.07 В 2 н/о н/о +17.0 +3.7 41 +17 +17 1006.1 +12.1 +17.1
12 20.07 ЮВ 2 н/о н/о +20.4 +3.7 33 +22 +22 комфорт 1002.4 +12.1 +21.0
15 20.07 ЮВ 5 н/о н/о +21.6 +3.0 29 +22 +22 комфорт 1000.1 +20.3 +22.4
18 20.07 Ю 4 н/о н/о +18.9 +1.5 31 +19 +19 1001.2 +18.9 +22.4
21 20.07 СЗ 2 н/о н/о +15.8 +1.9 39 +16 +16 1002.2 +15.3 +22.4
00 21.07 Ю 1 н/о н/о +12.9 +1.6 46 +13 +13 1002.2 +12.8 +22.4
03 21.07 Ю 4 н/о н/о +14.7 -2.1 31 +14 +14 1001.6 +12.8 +22.4
06 21.07 Ю 3 н/о н/о +13.8 -3.4 30 +13 +13 1001.8 +12.8
09 21.07 Ю 2 н/о н/о +20.4 -1.2 23 +21 +21 комфорт 1001.7 +12.8 +20.4
12 21.07 ЮЗ 1 н/о н/о +28.5 -2.2 13 +26 +26 жарко 997.1 +12.8 +28.5
15 21.07 С 2 н/о н/о +29.3 -2.7 12 +26 +26 жарко 994.7 +27.8 +29.8
18 21.07 ЮВ 1 н/о н/о +21.7 -0.1 23 +21 +21 комфорт 995.5 +21.7 +29.8

 

Местоположение метеостанции Виулсдриф (Южная Африка): широта -28.70 долгота 17.60 высота над уровнем моря 168 м.

В архиве по умолчанию представлена погода в Виулсдрифе за последнюю неделю. Архивные данные за месяц целиком и за предыдущие месяцы, начиная с января 2011 года, Вы можете получить, выбрав интересующий диапазон дат из раскрывающегося списка и нажав кнопку "Ввод!".


*Определитесь, кто Вы:
робот инопланетянин человек

Внимание! Время в таблицах - всемирное. Для получения местного времени необходимо прибавить поправку, которая равна 2 ч.

Смотрите также архив погоды в соседних городах и на ближайших метеорологических станциях:

Погода в Порт Ноллоз (Южная Африка) (92 км)
Погода в Александер-Бее (Южная Африка) (106 км)
Погода в Спрингбоке (Южная Африка) (111 км)
Погода в Коингнаасе (Южная Африка) (170 км)
Погода в Пофаддере (Южная Африка) (180 км)
Погода в Портервилле (Южная Африка) (198 км)
Погода в Китмансхупе (Намибия) (247 км)
Погода на Ауграбисе (Южная Африка) (268 км)
Погода в Ниеувоудтвилле (Южная Африка) (327 км)
Погода в Людерице (Намибия) (337 км)

Пояснения к столбцам:

Ветер - указаны скорость ветра в м/с - средняя за 10 мин, порывы в срок и между сроками (в фигурных скобках) и направление, откуда дует ветер: С - северный, СВ - северо-восточный, В - восточный, ЮВ - юго-восточный, Ю - южный, ЮЗ - юго-западный, З - западный, СЗ - северо-западный.
Видимость - горизонтальная дальность видимости в метрах или километрах. При видимости от 1 до 10 км при отсутствии осадков обычно наблюдается дымка, при ухудшении видимости до 1 км и менее - туман. В сухую погоду видимость может ухудшаться дымом, пылью или мглою.
Явления - указаны атмосферные явления, наблюдавшиеся в срок или в последний час перед сроком; фигурными скобками обозначены явления, наблюдавшиеся между сроками (за 1-3 часа до срока); квадратными скобками обозначены град или гололедные отложения с указанием их диаметра в мм.
Облачность - указаны через наклонную черту общая и нижняя облачность в баллах и высота нижней границы облаков в метрах; квадратными скобками обозначены формы облаков: Ci - перистые, Cs - перисто-слоистые, Cc - перисто-кучевые, Ac - высококучевые, As - высокослоистые, Sc - слоисто-кучевые, Ns - слоисто-дождевые, Cu - кучевые, Cb - кучево-дождевые. Подробнее классификацию облаков см. в Атласе облаков (PDF).
T - Температура воздуха - температура, измеренная на высоте 2 м над землей.
Td - Температура точки росы - температура, при понижении до которой содержащийся в воздухе водяной пар достигнет насыщения.
f - Относительная влажность воздуха - влажноcть воздуха, измеренная на высоте 2 м над землей.
Te - Эффективная температура - температура, которую ощущает одетый по сезону человек в тени. Характеристика душности погоды. При расчете учитывается влияние влажности воздуха и скорости ветра на теплоощущения человека.
Tes - Эффективная температура на солнце - температура, которую ощущает человек, с поправкой на солнечный нагрев. Характеристика знойности погоды. Зависит от высоты солнца над горизонтом, облачности и скорости ветра. Ночью, в пасмурную погоду, а также при ветре 12 м/с и более поправка равна нулю.
P - Атмосферное давление - приведенное к уровню моря атмосферное давление.
Po - Атмосферное давление - измеренное на уровне метеостанции атмосферное давление.
Tmin - Минимальная температура - минимум температуры воздуха на высоте 2 м над землей.
Tmax - Максимальная температура - максимум температуры воздуха на высоте 2 м над землей.
R - Количество осадков - Количество выпавших осадков за период времени, мм. При наведении курсора мыши на число - период времени, за который выпало указанное количество осадков.
R24 - Количество осадков - Количество выпавших осадков за 24 часа, мм.
S - Снежный покров - Высота снежного покрова, см. При наведении курсора мыши на число - состояние снежного покрова и степень покрытия местности в баллах.